Pittsfield, MA

1:17 PM EDT on September 21, 2017 (GMT -0400)
Pittsfield Municipal

Weather History for KPSF - February, 2012

Change the Weather History Date:

Sunday, February 5, 2012

  Actual Average Record
Temperature  
Mean Temperature 23 °F 22 °F  
Max Temperature 30 °F 30 °F 53 °F (1962)
Min Temperature 15 °F 13 °F -9 °F (1946)
Degree Days  
Heating Degree Days 42 43  
Month to date heating degree days 173 219  
Since 1 July heating degree days 3642 4444  
Cooling Degree Days 0 0  
Month to date cooling degree days 0 0  
Year to date cooling degree days 0 0  
Moisture  
Dew Point 13 °F    
Average Humidity 67    
Maximum Humidity 88    
Minimum Humidity 46    
Precipitation  
Precipitation 0.00 in 0.08 in 0.76 in (2001)
Month to date precipitation 0.08 0.41  
Year to date precipitation 3.27 3.33  
Sea Level Pressure  
Sea Level Pressure 30.12 in    
Wind  
Wind Speed 7 mph (West)    
Max Wind Speed 15 mph    
Max Gust Speed 18 mph    
Visibility 10 miles    
Events      
T = Trace of Precipitation, MM = Missing Value Source: NWS Daily Summary

Daily Weather History Graph

Daily Weather History Graph

Search for Another Location

Airport or City:

Trip Planner

Search our weather history database for the weather conditions in past years. The results will help you decide how hot, cold, wet, or windy it might be!

Date:

Astronomy

Feb. 05, 2012 Rise Set
Actual Time 7:03 AM EST 5:11 PM EST
Civil Twilight 6:33 AM EST 5:41 PM EST
Nautical Twilight 6:00 AM EST 6:14 PM EST
Astronomical Twilight 5:27 AM EST 6:47 PM EST
Moon 3:06 PM EST (2/5) 5:13 AM EST (2/5)
Length of Visible Light 11h 07m
Length of Day
10h 08m
Waxing Gibbous, 94% of the Moon is Illuminated
Feb 5
Waxing Gibbous
Feb 7
Full
Feb 14
Last Quarter
Feb 21
New
Feb 29
First Quarter

Hourly Weather History & Observations

Time (EST) Temp. Windchill Dew Point Humidity Pressure Visibility Wind Dir Wind Speed Gust Speed Precip Events Conditions
12:54 AM 19.9 °F - 15.1 °F 81% 30.12 in 10.0 mi Calm Calm - N/A   Clear
1:54 AM 19.0 °F 11.1 °F 14.0 °F 81% 30.12 in 10.0 mi WSW 5.8 mph - N/A   Clear
2:54 AM 19.0 °F 13.9 °F 12.9 °F 77% 30.11 in 10.0 mi WSW 3.5 mph - N/A   Clear
3:54 AM 18.0 °F 12.7 °F 12.9 °F 81% 30.11 in 10.0 mi SW 3.5 mph - N/A   Clear
4:54 AM 17.1 °F 11.7 °F 12.0 °F 81% 30.12 in 10.0 mi SSW 3.5 mph - N/A   Clear
5:54 AM 17.1 °F - 12.0 °F 81% 30.12 in 10.0 mi Calm Calm - N/A   Clear
6:54 AM 16.0 °F 8.8 °F 12.0 °F 84% 30.14 in 10.0 mi SW 4.6 mph - N/A   Clear
7:54 AM 18.0 °F 12.7 °F 12.9 °F 81% 30.15 in 10.0 mi SW 3.5 mph - N/A   Clear
8:54 AM 19.9 °F 13.4 °F 12.9 °F 74% 30.15 in 10.0 mi SW 4.6 mph - N/A   Clear
9:54 AM 23.0 °F 13.9 °F 10.0 °F 58% 30.17 in 10.0 mi NW 8.1 mph - N/A   Clear
10:54 AM 25.0 °F 18.1 °F 12.0 °F 58% 30.15 in 10.0 mi WNW 5.8 mph - N/A   Clear
11:54 AM 27.0 °F 20.5 °F 10.9 °F 51% 30.12 in 10.0 mi West 5.8 mph - N/A   Clear
12:54 PM 28.9 °F 19.8 °F 10.9 °F 47% 30.11 in 10.0 mi NNW 10.4 mph - N/A   Clear
1:54 PM 28.0 °F 19.3 °F 10.9 °F 49% 30.10 in 10.0 mi West 9.2 mph - N/A   Clear
2:54 PM 28.9 °F 19.2 °F 12.0 °F 49% 30.10 in 10.0 mi NW 11.5 mph - N/A   Clear
3:54 PM 28.0 °F 18.6 °F 12.0 °F 51% 30.10 in 10.0 mi WNW 10.4 mph - N/A   Clear
4:54 PM 27.0 °F 18.7 °F 12.9 °F 56% 30.11 in 10.0 mi NW 8.1 mph - N/A   Clear
5:54 PM 24.1 °F 18.2 °F 12.9 °F 62% 30.12 in 10.0 mi West 4.6 mph - N/A   Clear
6:54 PM 23.0 °F 17.0 °F 12.9 °F 65% 30.13 in 10.0 mi WSW 4.6 mph - N/A   Clear
7:54 PM 25.0 °F 14.2 °F 12.9 °F 60% 30.12 in 10.0 mi West 11.5 mph - N/A   Clear
8:54 PM 25.0 °F 14.2 °F 14.0 °F 63% 30.12 in 10.0 mi West 11.5 mph - N/A   Clear
9:54 PM 25.0 °F 13.1 °F 14.0 °F 63% 30.11 in 10.0 mi West 13.8 mph - N/A   Clear
10:54 PM 24.1 °F 13.1 °F 14.0 °F 65% 30.11 in 10.0 mi West 11.5 mph - N/A   Clear
11:54 PM 25.0 °F 17.1 °F 14.0 °F 63% 30.10 in 10.0 mi West 6.9 mph - N/A   Clear